[[{"header":{"parameterUnit":"m.s-1","parameterCategory":1,"la1":30.2991,"la2":30.254,"lo1":-89.0895,"lo2":-89.0444,"dy":0.0017,"dx":0.0017,"nx":28,"ny":28,"refTime":"2025-08-16T09:00:00:Z","depth":0,"parameterNumber":2,"parameterNumberName":"U-component_of_WINDS"},"data":[0,0,0,0,0,0,0,0,0,0,0,0,0,0,0,0,0,0,0,0,0,0,0,0,0,0,0,0,0,0,0,0,0,0,0,0,0,0,0,0,0,0,0,0,0,0,0,0,0,0,0,0,0,0,0,0,0,0,1.3227,1.3226,0,1.3203,1.3203,1.3202,1.3174,1.3174,1.3173,1.3173,1.3145,1.3144,1.3144,0,0,0,0,0,0,0,0,0,0,0,0,0,1.3246,1.3246,1.3227,1.3226,1.3226,1.3203,1.3203,1.3202,1.3174,1.3174,1.3173,1.3173,1.3145,1.3145,1.3144,0,0,0,0,0,0,0,0,0,0,0,0,0,1.3231,1.3246,1.3227,1.3209,1.3208,1.3203,1.3203,1.3202,1.3174,1.3174,1.3173,1.3173,1.3145,1.3145,1.3144,1.3153,0,0,1.3142,1.3142,0,0,0,0,0,0,0,0,1.3232,1.3231,1.3212,1.3211,1.3209,1.3191,1.3199,1.3186,1.3175,1.3187,1.3173,1.3172,1.316,1.3159,1.3155,1.3152,1.3151,1.3142,1.3142,1.3142,1.3142,0,0,0,0,0,0,0,1.3233,1.3231,1.3217,1.3212,1.321,1.3202,1.32,1.3196,1.3177,1.3186,1.3184,1.3182,1.3159,1.3156,1.3155,1.315,1.3142,1.3142,1.3142,1.3141,1.3156,1.3157,0,0,0,0,0,0,1.3237,1.3233,1.3218,1.3216,1.3219,1.3203,1.3199,1.3197,1.3177,1.3174,1.3182,1.318,1.3157,1.3155,1.3153,1.3165,1.3142,1.3141,1.3141,1.3155,1.3156,1.3157,0,0,0,0,0,0,1.3238,1.3236,1.3219,1.3224,1.3221,1.3203,1.3201,1.3197,1.3194,1.3175,1.3171,1.3182,1.3157,1.3154,1.3154,1.3163,1.3141,1.3141,1.3154,1.3155,1.3156,1.3186,0,0,0,0,0,0,1.3238,1.3237,1.324,1.3224,1.3221,1.3221,1.3201,1.3197,1.3193,1.3191,1.3174,1.317,1.3156,1.3155,1.3154,1.3162,1.314,1.3153,1.3155,1.3156,1.3184,1.3188,1.3191,0,0,0,0,0,1.3239,1.3248,1.324,1.3239,1.3225,1.3221,1.3219,1.3204,1.3194,1.3198,1.3186,1.3171,1.3163,1.3156,1.3154,1.3162,1.3153,1.3154,1.3156,1.3183,1.3187,1.3191,0,0,0,0,0,0,1.3263,1.3245,1.3237,1.3241,1.3233,1.3217,1.322,1.3209,1.3202,1.32,1.318,1.3176,1.3179,1.317,1.3163,1.3171,1.3156,1.3157,1.3177,1.3181,1.3184,1.3186,1.314,0,0,0,0,0,1.3269,1.3268,1.3253,1.3258,1.3255,1.3238,1.3236,1.3225,1.3215,1.3212,1.3199,1.319,1.3186,1.3183,1.3177,1.3183,1.318,1.3188,1.3192,1.3195,1.3196,1.32,1.3204,1.3162,1.3162,1.3162,0,0,1.3281,1.3271,1.3272,1.3262,1.3255,1.3254,1.3235,1.3235,1.3234,1.3211,1.3211,1.3202,1.319,1.3194,1.3195,1.3187,1.3207,1.3197,1.3199,1.3199,1.3202,1.3207,1.321,1.3163,1.3163,1.3163,0,0,1.3302,1.3295,1.3299,1.3293,1.3283,1.3273,1.3274,1.326,1.3254,1.3254,1.3238,1.3236,1.3228,1.3221,1.3217,1.3239,1.3226,1.3238,1.3256,1.3261,1.3264,1.3267,1.3277,1.328,1.3239,1.3239,1.324,0,1.3318,1.3317,1.3303,1.3304,1.3301,1.3283,1.3287,1.3281,1.327,1.3268,1.3259,1.3251,1.3241,1.3245,1.3251,1.3247,1.3248,1.3239,1.3265,1.3268,1.327,1.3279,1.3282,1.3241,1.3241,1.3241,1.3241,0,1.3338,1.3338,1.3342,1.3334,1.3331,1.3334,1.332,1.3319,1.3309,1.33,1.3302,1.329,1.3283,1.3283,1.3272,1.3285,1.3281,1.3269,1.3253,1.3276,1.3284,1.3287,1.3243,1.3243,1.3242,1.3242,0,0,1.3371,1.3358,1.3359,1.3357,1.3346,1.3345,1.3348,1.3343,1.3343,1.3336,1.3338,1.3334,1.3324,1.3319,1.3307,1.3311,1.3332,1.3299,1.3299,1.3307,1.3348,1.3357,1.3361,1.3324,1.3324,1.3325,1.3349,0,1.3392,1.3396,1.3385,1.3392,1.3393,1.3377,1.3379,1.3373,1.3365,1.3364,1.3354,1.3352,1.3338,1.3336,1.3339,1.3329,1.334,1.3327,1.3326,1.3326,1.333,1.3365,1.3374,1.3398,1.3352,1.3352,1.3353,0,1.3415,1.3412,1.342,1.3412,1.3411,1.3414,1.341,1.3409,1.3402,1.3396,1.3392,1.338,1.3382,1.3368,1.3371,1.3363,1.3362,1.3357,1.3357,1.3357,1.3341,1.3366,1.3405,1.3409,1.3357,1.3357,1.3357,0,1.344,1.3438,1.3444,1.3441,1.3431,1.3433,1.3429,1.3421,1.342,1.3416,1.3416,1.3412,1.3409,1.3407,1.3394,1.3384,1.34,1.3383,1.3395,1.3395,1.3398,1.3398,1.3439,1.3397,1.3397,1.3397,1.3397,0,1.3464,1.347,1.3455,1.3459,1.3466,1.3452,1.3459,1.3453,1.3447,1.3449,1.3434,1.3436,1.3419,1.3419,1.3409,1.3415,1.3413,1.3409,1.3406,1.341,1.3411,1.3409,1.3408,1.3398,1.3398,1.3398,1.3397,0,1.3493,1.3483,1.3489,1.3479,1.3477,1.3483,1.3475,1.3477,1.347,1.3473,1.3472,1.346,1.346,1.3447,1.3443,1.3437,1.3447,1.3441,1.345,1.3448,1.3461,1.346,1.3501,1.3507,1.3461,1.3462,1.3462,0,1.3509,1.3514,1.3506,1.3507,1.3504,1.3505,1.3505,1.3493,1.3493,1.3487,1.3491,1.349,1.3488,1.3489,1.3479,1.3477,1.3472,1.3486,1.3471,1.3476,1.3473,1.3473,1.3474,1.3489,1.349,1.349,1.3491,0,1.3539,1.3535,1.3535,1.3535,1.3535,1.3534,1.3531,1.3533,1.3519,1.352,1.3521,1.352,1.3519,1.3518,1.3515,1.351,1.3499,1.3496,1.3499,1.3503,1.3509,1.3507,1.3459,1.3495,1.3494,1.3494,1.3494,1.3494,1.3562,1.3567,1.3563,1.3564,1.3562,1.3561,1.3564,1.3558,1.3559,1.3557,1.355,1.3553,1.3547,1.3542,1.3539,1.3541,1.3533,1.3537,1.3538,1.3539,1.3542,1.3509,1.354,1.354,1.354,1.3539,1.3539,0,1.3592,1.359,1.3591,1.359,1.3592,1.3582,1.358,1.3582,1.3585,1.3582,1.3582,1.3584,1.3585,1.3576,1.3576,1.3579,1.3574,1.3579,1.3579,1.3579,1.3548,1.3547,1.3584,1.3584,1.3584,1.3584,1.3584,1.3584,1.3608,1.3616,1.3611,1.3618,1.3615,1.3619,1.3619,1.3618,1.3616,1.362,1.3621,1.3616,1.3611,1.3611,1.3611,1.3609,1.361,1.3617,1.3613,1.3585,1.358,1.3576,1.3575,1.3617,1.3617,1.3643,1.3644,1.3644]},{"header":{"parameterUnit":"m.s-1","parameterCategory":1,"la1":30.2991,"la2":30.254,"lo1":-89.0895,"lo2":-89.0444,"dy":0.0017,"dx":0.0017,"nx":28,"ny":28,"refTime":"2025-08-16T09:00:00:Z","depth":0,"parameterNumber":3,"parameterNumberName":"V-component_of_WINDS"},"data":[0,0,0,0,0,0,0,0,0,0,0,0,0,0,0,0,0,0,0,0,0,0,0,0,0,0,0,0,0,0,0,0,0,0,0,0,0,0,0,0,0,0,0,0,0,0,0,0,0,0,0,0,0,0,0,0,0,0,-1.2026,-1.2026,0,-1.2077,-1.2077,-1.2078,-1.207,-1.207,-1.2069,-1.2068,-1.2117,-1.2119,-1.2121,0,0,0,0,0,0,0,0,0,0,0,0,0,-1.192,-1.1922,-1.2026,-1.2026,-1.2027,-1.2076,-1.2077,-1.2078,-1.2071,-1.207,-1.2069,-1.2068,-1.2117,-1.2119,-1.2122,0,0,0,0,0,0,0,0,0,0,0,0,0,-1.1968,-1.1922,-1.2026,-1.2029,-1.203,-1.2076,-1.2077,-1.2078,-1.2071,-1.207,-1.2068,-1.2067,-1.2116,-1.2119,-1.2122,-1.2166,0,0,-1.2131,-1.2133,0,0,0,0,0,0,0,0,-1.1965,-1.1972,-1.2028,-1.2029,-1.203,-1.2066,-1.2058,-1.2108,-1.2071,-1.2055,-1.2068,-1.2067,-1.2101,-1.2105,-1.2117,-1.2169,-1.2171,-1.2132,-1.2134,-1.2135,-1.2136,0,0,0,0,0,0,0,-1.1962,-1.1969,-1.2046,-1.2029,-1.203,-1.2028,-1.2033,-1.2067,-1.2084,-1.2057,-1.2056,-1.2063,-1.2101,-1.2114,-1.2119,-1.2172,-1.2132,-1.2134,-1.2136,-1.2138,-1.2261,-1.2262,0,0,0,0,0,0,-1.1958,-1.1967,-1.2044,-1.2047,-1.1994,-1.2031,-1.2037,-1.2056,-1.2084,-1.2087,-1.2064,-1.2062,-1.211,-1.2115,-1.212,-1.2174,-1.2135,-1.2138,-1.214,-1.226,-1.2261,-1.2263,0,0,0,0,0,0,-1.1955,-1.1965,-1.2042,-1.2007,-1.2017,-1.2034,-1.2055,-1.2057,-1.2071,-1.2089,-1.2092,-1.2074,-1.2109,-1.2116,-1.2155,-1.2175,-1.2139,-1.2142,-1.2258,-1.226,-1.2262,-1.2281,0,0,0,0,0,0,-1.1952,-1.1964,-1.1982,-1.2007,-1.2018,-1.2077,-1.2057,-1.2059,-1.2076,-1.2075,-1.21,-1.2103,-1.2108,-1.215,-1.2158,-1.2179,-1.2145,-1.2256,-1.2259,-1.2261,-1.2279,-1.2284,-1.2288,0,0,0,0,0,-1.1949,-1.1985,-1.1983,-1.1992,-1.2041,-1.2078,-1.2084,-1.2091,-1.2078,-1.2095,-1.2108,-1.2102,-1.2172,-1.2154,-1.2163,-1.2185,-1.2255,-1.2258,-1.2261,-1.2277,-1.2283,-1.2288,0,0,0,0,0,0,-1.196,-1.1988,-1.1986,-1.2032,-1.2053,-1.2077,-1.2099,-1.2097,-1.2121,-1.2119,-1.2125,-1.2131,-1.217,-1.2182,-1.2162,-1.2229,-1.2212,-1.2217,-1.222,-1.2226,-1.2231,-1.2227,-1.2147,0,0,0,0,0,-1.1968,-1.1996,-1.2019,-1.2057,-1.2068,-1.2082,-1.2098,-1.2101,-1.2123,-1.2131,-1.2146,-1.2167,-1.2193,-1.221,-1.2236,-1.2281,-1.2285,-1.23,-1.2305,-1.2308,-1.2312,-1.2336,-1.2342,-1.2273,-1.2273,-1.2273,0,0,-1.1984,-1.2003,-1.202,-1.206,-1.2076,-1.2105,-1.2089,-1.212,-1.2141,-1.2136,-1.2174,-1.2185,-1.2209,-1.2251,-1.227,-1.2261,-1.2332,-1.2312,-1.2315,-1.2317,-1.234,-1.2346,-1.2352,-1.2275,-1.2275,-1.2275,0,0,-1.2028,-1.2046,-1.2079,-1.2096,-1.2122,-1.2131,-1.2139,-1.2164,-1.2172,-1.221,-1.2207,-1.2231,-1.2277,-1.2293,-1.2308,-1.2358,-1.2354,-1.2366,-1.2389,-1.2412,-1.2418,-1.2423,-1.244,-1.2446,-1.237,-1.237,-1.237,0,-1.2045,-1.2088,-1.2096,-1.2127,-1.2144,-1.2142,-1.2175,-1.2191,-1.2224,-1.2235,-1.2225,-1.2282,-1.2298,-1.2343,-1.2356,-1.2368,-1.2376,-1.2363,-1.2417,-1.2421,-1.2426,-1.2442,-1.2449,-1.2372,-1.2372,-1.2371,-1.2371,0,-1.2107,-1.2137,-1.2161,-1.2193,-1.2213,-1.2245,-1.2256,-1.2275,-1.2277,-1.2287,-1.2325,-1.2344,-1.2373,-1.2384,-1.2386,-1.243,-1.2423,-1.2415,-1.2397,-1.2434,-1.2449,-1.2456,-1.2374,-1.2373,-1.2373,-1.2372,0,0,-1.2159,-1.2195,-1.2204,-1.2218,-1.2246,-1.2269,-1.2301,-1.233,-1.2346,-1.2368,-1.2394,-1.2433,-1.2426,-1.2442,-1.2445,-1.2466,-1.2503,-1.2455,-1.2455,-1.2462,-1.2552,-1.2557,-1.2564,-1.2501,-1.2502,-1.2503,-1.2549,0,-1.2205,-1.2261,-1.2269,-1.2319,-1.2346,-1.2345,-1.2372,-1.2392,-1.2402,-1.2426,-1.2437,-1.2464,-1.2453,-1.2463,-1.2483,-1.2494,-1.2521,-1.2491,-1.2524,-1.2525,-1.2517,-1.2572,-1.2578,-1.2621,-1.2555,-1.2557,-1.2557,0,-1.2266,-1.2291,-1.2343,-1.2368,-1.238,-1.2404,-1.2431,-1.2455,-1.2477,-1.2483,-1.2501,-1.2502,-1.2534,-1.2515,-1.2558,-1.2538,-1.2552,-1.2559,-1.2561,-1.2564,-1.2543,-1.2575,-1.2635,-1.2641,-1.2567,-1.2566,-1.2565,0,-1.2297,-1.2344,-1.2381,-1.2394,-1.2423,-1.2441,-1.2453,-1.2475,-1.2492,-1.2515,-1.2526,-1.2553,-1.2567,-1.2587,-1.2595,-1.2581,-1.2637,-1.2619,-1.2641,-1.2641,-1.2653,-1.2652,-1.2714,-1.2663,-1.2663,-1.2663,-1.2663,0,-1.2347,-1.2379,-1.2396,-1.2419,-1.2454,-1.2463,-1.2497,-1.2509,-1.2528,-1.2553,-1.2553,-1.2576,-1.2585,-1.2609,-1.2615,-1.2649,-1.2656,-1.2661,-1.2662,-1.266,-1.266,-1.2669,-1.2665,-1.2665,-1.2664,-1.2664,-1.2664,0,-1.2387,-1.24,-1.2441,-1.2466,-1.2473,-1.2498,-1.2519,-1.254,-1.255,-1.2581,-1.2589,-1.2604,-1.2633,-1.2643,-1.2677,-1.2681,-1.272,-1.2719,-1.2713,-1.2713,-1.2734,-1.2732,-1.2804,-1.2813,-1.2757,-1.2758,-1.2758,0,-1.2418,-1.2443,-1.2471,-1.2487,-1.2501,-1.2528,-1.2546,-1.2555,-1.2573,-1.26,-1.2618,-1.2647,-1.267,-1.2715,-1.2728,-1.2754,-1.2753,-1.2777,-1.2757,-1.2755,-1.2752,-1.2751,-1.2753,-1.278,-1.2781,-1.2781,-1.2782,0,-1.247,-1.2476,-1.2501,-1.2529,-1.255,-1.2573,-1.2594,-1.2608,-1.262,-1.264,-1.2669,-1.2687,-1.2723,-1.275,-1.2777,-1.2789,-1.2787,-1.2788,-1.2794,-1.2792,-1.2787,-1.2789,-1.2722,-1.2786,-1.2786,-1.2785,-1.2785,-1.2785,-1.2506,-1.2528,-1.2551,-1.258,-1.2597,-1.2617,-1.2639,-1.2652,-1.2677,-1.2707,-1.271,-1.2742,-1.2763,-1.2798,-1.2812,-1.2836,-1.2829,-1.2838,-1.2841,-1.2843,-1.2844,-1.2785,-1.2841,-1.284,-1.284,-1.284,-1.284,0,-1.2558,-1.2573,-1.2599,-1.263,-1.2652,-1.265,-1.2673,-1.2691,-1.2719,-1.274,-1.2763,-1.2796,-1.2823,-1.2839,-1.2866,-1.2882,-1.2881,-1.2888,-1.2886,-1.2889,-1.2849,-1.284,-1.2888,-1.2888,-1.2888,-1.2888,-1.2888,-1.2888,-1.2587,-1.2624,-1.2632,-1.2677,-1.2691,-1.2722,-1.2736,-1.2754,-1.277,-1.2808,-1.2831,-1.2841,-1.286,-1.2888,-1.2912,-1.2916,-1.2925,-1.2932,-1.2936,-1.2897,-1.2892,-1.2887,-1.2879,-1.2935,-1.2935,-1.2974,-1.2974,-1.2975]}]]